Fort Bridger AP, Fort Bridger, WY

4:00 PM MDT on March 26, 2017 (GMT -0600)
Fort Bridger

Weather History for KFBR - January, 2014

Change the Weather History Date:

Thursday, January 23, 2014

  Actual Average (KEMM) Record (KEMM)
Temperature  
Mean Temperature 22 °F -  
Max Temperature 29 °F 29 °F 50 °F (1970)
Min Temperature 14 °F 5 °F -18 °F (1962)
Degree Days  
Heating Degree Days 44    
Moisture  
Dew Point 13 °F    
Average Humidity 72    
Maximum Humidity 99    
Minimum Humidity 40    
Precipitation  
Precipitation 0.00 in - - ()
Sea Level Pressure  
Sea Level Pressure 30.37 in    
Wind  
Wind Speed 12 mph (ESE)    
Max Wind Speed 17 mph    
Max Gust Speed 24 mph    
Visibility 9 miles    
Events Snow    
Averages and records for this station are not official NWS values.
T = Trace of Precipitation, MM = Missing Value Source: NWS Daily Summary

Daily Weather History Graph

Daily Weather History Graph

Search for Another Location

Airport or City:

Trip Planner

Search our weather history database for the weather conditions in past years. The results will help you decide how hot, cold, wet, or windy it might be!

Date:

Astronomy

Jan. 23, 2014 Rise Set
Actual Time 7:40 AM MST 5:26 PM MST
Civil Twilight 7:10 AM MST 5:56 PM MST
Nautical Twilight 6:37 AM MST 6:30 PM MST
Astronomical Twilight 6:04 AM MST 7:03 PM MST
Moon 12:06 AM MST (1/23) 11:12 AM MST (1/23)
Length of Visible Light 10h 45m
Length of Day
9h 46m
Waning Gibbous, 54% of the Moon is Illuminated
Jan 23
Waning Gibbous
Jan 23
Last Quarter
Jan 30
New
Feb 6
First Quarter
Feb 14
Full

Hourly Weather History & Observations

Time (MST) Temp. Windchill Dew Point Humidity Pressure Visibility Wind Dir Wind Speed Gust Speed Precip Events Conditions
12:15 AM 26.6 °F 16.2 °F 24.6 °F 92% 30.16 in 1.5 mi ESE 11.5 mph - N/A Snow Light Snow
12:35 AM 25.3 °F 14.1 °F 23.9 °F 94% 30.17 in 0.8 mi ESE 12.7 mph - N/A Snow Snow
12:55 AM 25.5 °F 14.9 °F 24.6 °F 96% 30.18 in 1.2 mi ESE 11.5 mph - N/A Snow Light Snow
1:15 AM 26.1 °F 15.0 °F 25.7 °F 99% 30.19 in 2.0 mi ESE 12.7 mph 17.3 mph N/A Snow Light Snow
1:35 AM 25.9 °F 13.3 °F 25.5 °F 99% 30.19 in 2.5 mi ESE 16.1 mph 19.6 mph N/A Snow Light Snow
1:55 AM 24.8 °F 12.9 °F 23.2 °F 94% 30.20 in 10.0 mi ESE 13.8 mph - N/A   Overcast
2:15 AM 24.4 °F 13.5 °F 23.0 °F 94% 30.21 in 10.0 mi East 11.5 mph - N/A   Overcast
2:35 AM 24.4 °F 12.4 °F 22.6 °F 93% 30.23 in 10.0 mi East 13.8 mph - N/A Snow Light Snow
2:55 AM 23.9 °F 11.7 °F 21.2 °F 89% 30.24 in 10.0 mi East 13.8 mph - N/A   Overcast
3:15 AM 23.9 °F 10.3 °F 20.8 °F 88% 30.25 in 10.0 mi East 17.3 mph 23.0 mph N/A   Overcast
3:35 AM 23.4 °F 10.1 °F 20.3 °F 88% 30.25 in 10.0 mi East 16.1 mph 24.2 mph N/A   Overcast
3:55 AM 22.6 °F 9.6 °F 19.8 °F 89% 30.26 in 10.0 mi ESE 15.0 mph - N/A   Mostly Cloudy
4:15 AM 21.2 °F 8.3 °F 18.5 °F 89% 30.27 in 10.0 mi ESE 13.8 mph - N/A   Scattered Clouds
4:35 AM 20.3 °F 7.2 °F 18.1 °F 91% 30.28 in 10.0 mi ESE 13.8 mph - N/A   Clear
4:55 AM 19.4 °F 7.2 °F 17.1 °F 91% 30.29 in 10.0 mi ESE 11.5 mph - N/A   Clear
5:15 AM 17.6 °F 5.0 °F 15.6 °F 92% 30.30 in 10.0 mi ESE 11.5 mph - N/A   Scattered Clouds
5:35 AM 18.3 °F 5.9 °F 16.3 °F 92% 30.30 in 10.0 mi SE 11.5 mph - N/A   Overcast
5:55 AM 19.8 °F 7.1 °F 17.6 °F 91% 30.31 in 10.0 mi ESE 12.7 mph - N/A   Overcast
6:15 AM 20.3 °F 6.6 °F 17.4 °F 89% 30.32 in 10.0 mi SE 15.0 mph - N/A   Overcast
6:35 AM 20.3 °F 6.6 °F 16.7 °F 86% 30.33 in 10.0 mi ESE 15.0 mph - N/A   Overcast
6:55 AM 18.9 °F 5.3 °F 14.9 °F 85% 30.33 in 10.0 mi ESE 13.8 mph - N/A   Scattered Clouds
7:15 AM 17.4 °F 4.7 °F 14.0 °F 86% 30.35 in 10.0 mi ESE 11.5 mph - N/A   Clear
7:35 AM 15.6 °F 3.2 °F 12.7 °F 88% 30.36 in 10.0 mi ESE 10.4 mph - N/A   Clear
7:55 AM 14.5 °F 1.1 °F 12.0 °F 90% 30.37 in 10.0 mi ESE 11.5 mph - N/A   Clear
8:15 AM 14.4 °F 1.6 °F 11.7 °F 89% 30.37 in 10.0 mi SE 10.4 mph - N/A   Clear
8:35 AM 16.9 °F 4.1 °F 13.6 °F 87% 30.38 in 10.0 mi SE 11.5 mph - N/A   Clear
8:55 AM 18.5 °F 6.8 °F 14.7 °F 85% 30.39 in 10.0 mi SE 10.4 mph - N/A   Clear
9:15 AM 19.6 °F 8.9 °F 15.4 °F 84% 30.39 in 10.0 mi SE 9.2 mph - N/A   Clear
9:35 AM 20.3 °F 9.0 °F 15.1 °F 80% 30.40 in 10.0 mi ESE 10.4 mph - N/A   Clear
9:55 AM 21.4 °F 10.4 °F 14.7 °F 75% 30.41 in 10.0 mi ESE 10.4 mph - N/A   Clear
10:15 AM 21.9 °F 11.0 °F 14.7 °F 74% 30.42 in 10.0 mi ESE 10.4 mph - N/A   Clear
10:35 AM 23.5 °F 11.8 °F 14.4 °F 68% 30.42 in 10.0 mi ESE 12.7 mph - N/A   Clear
10:55 AM 25.2 °F 13.9 °F 9.3 °F 51% 30.43 in 10.0 mi East 12.7 mph - N/A   Clear
11:15 AM 25.9 °F 14.3 °F 8.6 °F 48% 30.44 in 10.0 mi East 13.8 mph 17.3 mph N/A   Clear
11:35 AM 26.4 °F 15.0 °F 9.1 °F 48% 30.44 in 10.0 mi East 13.8 mph 17.3 mph N/A   Clear
11:55 AM 27.0 °F 14.3 °F 6.6 °F 42% 30.44 in 10.0 mi East 17.3 mph - N/A   Clear
12:15 PM 26.6 °F 14.7 °F 6.8 °F 43% 30.43 in 10.0 mi East 15.0 mph - N/A   Clear
12:35 PM 27.5 °F 16.3 °F 7.2 °F 42% 30.43 in 10.0 mi East 13.8 mph - N/A   Clear
12:55 PM 28.2 °F 17.7 °F 8.4 °F 43% 30.43 in 10.0 mi ESE 12.7 mph - N/A   Clear
1:15 PM 28.0 °F 17.5 °F 7.7 °F 42% 30.42 in 10.0 mi East 12.7 mph - N/A   Clear
1:35 PM 28.2 °F 18.9 °F 8.6 °F 44% 30.42 in 10.0 mi East 10.4 mph - N/A   Clear
1:55 PM 28.6 °F 19.3 °F 8.4 °F 43% 30.41 in 10.0 mi East 10.4 mph - N/A   Clear
2:15 PM 28.4 °F 19.7 °F 7.9 °F 42% 30.41 in 10.0 mi East 9.2 mph - N/A   Clear
2:35 PM 28.8 °F 20.2 °F 9.1 °F 44% 30.41 in 10.0 mi East 9.2 mph - N/A   Clear
2:55 PM 28.9 °F 21.9 °F 8.8 °F 43% 30.41 in 10.0 mi ENE 6.9 mph - N/A   Clear
3:15 PM 29.1 °F 23.0 °F 7.5 °F 40% 30.41 in 10.0 mi East 5.8 mph - N/A   Clear
3:35 PM 28.6 °F 19.9 °F 8.1 °F 42% 30.41 in 10.0 mi East 9.2 mph - N/A   Clear
3:55 PM 28.6 °F 20.7 °F 8.8 °F 43% 30.40 in 10.0 mi ENE 8.1 mph - N/A   Clear
4:15 PM 28.4 °F 20.4 °F 10.0 °F 46% 30.40 in 10.0 mi ENE 8.1 mph - N/A   Clear
4:40 PM 27.3 °F - 10.2 °F 49% 30.40 in 10.0 mi North - - N/A   Clear
4:55 PM 25.0 °F - 15.4 °F 67% 30.41 in 10.0 mi North - - N/A   Clear
5:15 PM 22.8 °F 15.5 °F 14.4 °F 70% 30.41 in 10.0 mi NNE 5.8 mph - N/A   Clear
5:35 PM 20.1 °F 12.3 °F 12.9 °F 74% 30.41 in 10.0 mi North 5.8 mph - N/A   Clear
5:55 PM 18.5 °F 10.4 °F 11.5 °F 74% 30.42 in 10.0 mi North 5.8 mph - N/A   Clear
6:15 PM 18.9 °F 12.1 °F 11.5 °F 73% 30.42 in 10.0 mi North 4.6 mph - N/A   Clear
6:35 PM 20.1 °F 15.2 °F 12.2 °F 71% 30.43 in 10.0 mi NNW 3.5 mph - N/A   Clear
6:55 PM 20.3 °F 13.8 °F 12.7 °F 73% 30.44 in 10.0 mi NNW 4.6 mph - N/A   Clear
7:20 PM 20.7 °F 15.8 °F 12.0 °F 69% 30.45 in 10.0 mi WNW 3.5 mph - N/A   Clear
7:35 PM 18.9 °F 12.1 °F 10.6 °F 70% 30.45 in 10.0 mi West 4.6 mph - N/A   Clear
7:55 PM 15.1 °F 5.2 °F 10.0 °F 80% 30.45 in 10.0 mi WSW 6.9 mph - N/A   Clear
8:15 PM 16.3 °F 5.7 °F 10.2 °F 77% 30.46 in 10.0 mi West 8.1 mph - N/A   Clear
8:40 PM 16.7 °F 4.5 °F 10.4 °F 76% 30.47 in 10.0 mi West 10.4 mph - N/A   Clear
8:55 PM 16.5 °F 5.1 °F 10.4 °F 77% 30.47 in 10.0 mi West 9.2 mph - N/A   Clear
9:15 PM 16.7 °F 4.5 °F 10.8 °F 77% 30.46 in 10.0 mi West 10.4 mph - N/A   Clear
9:35 PM 16.5 °F 5.1 °F 10.2 °F 76% 30.47 in 10.0 mi WSW 9.2 mph - N/A   Clear
9:55 PM 16.5 °F 5.1 °F 9.5 °F 74% 30.47 in 10.0 mi WSW 9.2 mph - N/A   Clear
10:15 PM 17.2 °F 6.0 °F 10.2 °F 74% 30.47 in 10.0 mi WSW 9.2 mph - N/A   Clear
10:35 PM 17.4 °F 4.7 °F 10.2 °F 73% 30.47 in 10.0 mi WSW 11.5 mph - N/A   Clear
10:55 PM 17.6 °F 4.3 °F 9.7 °F 71% 30.47 in 10.0 mi West 12.7 mph - N/A   Clear
11:35 PM 19.6 °F 5.7 °F 5.0 °F 53% 30.46 in 10.0 mi WSW 15.0 mph - N/A   Clear
11:55 PM 22.8 °F 9.9 °F 4.5 °F 45% 30.46 in 10.0 mi WSW 15.0 mph - N/A   Clear